{"data":{"norad_id":55780,"intl_designator":"2023-028AR","name":"STARLINK-5819","alt_names":[],"object_type":"PAYLOAD","status":"ACTIVE","operator":null,"country":"US","launch_date":"2023-03-03","launch_site_code":"AFWTR","launch_vehicle":null,"mission":null,"orbit_class":"UNKNOWN","rcs_meters":null,"size_class":null,"mass_kg":null,"dimensions":null,"purposes":["comms"],"wikipedia_slug":null,"has_3d_model":false,"image_url":null,"decayed_at":null,"tle_current":{"epoch":"2026-05-25T02:31:39.443232Z","epoch_age_seconds":61960,"freshness":"FRESH","line1":"1 55780U 23028AR  26145.10531763  .00000184  00000+0  23208-4 0  9995","line2":"2 55780  69.9998  31.6186 0002872 270.0476  90.0354 14.98332465177985","mean_motion":14.98332465,"eccentricity":0.0002872,"inclination_deg":69.9998,"raan_deg":31.6186,"arg_perigee_deg":270.0476,"mean_anomaly_deg":90.0354,"bstar":2.3208e-5,"rev_number":17798,"period_min":96.106841014087,"perigee_km":570.05217493669,"apogee_km":574.04436135472,"semimajor_km":6950.1852681457,"source":"CELESTRAK","updated_at":"2026-05-25T13:38:17.885702Z"}}}